FBZ2742 SAZS-SABE

Flight info

Callsign FBZ2742
Flight time 1h 31m
Altitude 35000
Route LIMAY1G LIMAY UW26 EGUNO UZ109 ISMIL UT655 ASADA ASADA8Q
Aircraft B738/M-SDE2E3FGHIRWXY/LB1

Departure

Time 2026-05-05 23:07
Airport Teniente Luis Candelaria International Airport (SAZS)

Arrival

Time 2026-05-06 00:38
Airport Aeroparque Jorge Newbery (SABE)
Time Latitude Longitude Altitude Speed Heading
2026-05-05 22:51 -41.14651 -71.16214 2782 ft 0 kts 45°
2026-05-05 23:00 -41.14651 -71.16215 2782 ft 1 kts 45°
2026-05-05 23:00 -41.14660 -71.16227 2782 ft 2 kts 41°
2026-05-05 23:00 -41.14676 -71.16240 2782 ft 3 kts 23°
2026-05-05 23:01 -41.14695 -71.16247 2782 ft 3 kts
2026-05-05 23:01 -41.14716 -71.16245 2782 ft 3 kts 347°
2026-05-05 23:01 -41.14735 -71.16235 2782 ft 3 kts 332°
2026-05-05 23:01 -41.14752 -71.16220 2782 ft 3 kts 318°
2026-05-05 23:02 -41.14755 -71.16215 2782 ft 0 kts 316°
2026-05-05 23:03 -41.14754 -71.16251 2782 ft 9 kts 232°
2026-05-05 23:03 -41.14813 -71.16294 2782 ft 8 kts 204°
2026-05-05 23:03 -41.14867 -71.16327 2782 ft 10 kts 204°
2026-05-05 23:04 -41.14889 -71.16392 2782 ft 12 kts 292°
2026-05-05 23:04 -41.14844 -71.16528 2782 ft 20 kts 294°
2026-05-05 23:04 -41.14790 -71.16691 2782 ft 17 kts 294°
2026-05-05 23:04 -41.14745 -71.16828 2782 ft 17 kts 294°
2026-05-05 23:05 -41.14684 -71.16951 2782 ft 10 kts 337°
2026-05-05 23:05 -41.14627 -71.16987 2782 ft 9 kts 263°
2026-05-05 23:05 -41.14676 -71.17007 2782 ft 7 kts 134°
2026-05-05 23:05 -41.14691 -71.16966 2782 ft 0 kts 115°
2026-05-05 23:06 -41.14716 -71.16899 2782 ft 34 kts 115°
2026-05-05 23:06 -41.14914 -71.16334 2782 ft 99 kts 115°
2026-05-05 23:06 -41.15286 -71.15271 2783 ft 153 kts 115°
2026-05-05 23:06 -41.15782 -71.13861 3067 ft 175 kts 115°
2026-05-05 23:07 -41.16330 -71.12345 3606 ft 194 kts 116°
2026-05-05 23:07 -41.16921 -71.10660 4240 ft 206 kts 113°
2026-05-05 23:07 -41.17517 -71.08907 4841 ft 216 kts 112°
2026-05-05 23:07 -41.17917 -71.06928 5211 ft 239 kts 94°
2026-05-05 23:08 -41.17628 -71.04636 5376 ft 268 kts 64°
2026-05-05 23:08 -41.16459 -71.02657 6007 ft 275 kts 39°
2026-05-05 23:08 -41.14849 -71.01591 7470 ft 244 kts 11°
2026-05-05 23:08 -41.13271 -71.01268 8925 ft 222 kts
2026-05-05 23:09 -41.11740 -71.00778 9654 ft 234 kts
2026-05-05 23:09 -41.10116 -71.00074 10048 ft 254 kts 11°
2026-05-05 23:09 -41.08459 -70.99259 10771 ft 258 kts 12°
2026-05-05 23:09 -41.06763 -70.98414 11525 ft 261 kts 12°
2026-05-05 23:10 -41.05049 -70.97558 12254 ft 265 kts 13°
2026-05-05 23:10 -41.03319 -70.96678 12925 ft 270 kts 15°
2026-05-05 23:10 -41.01649 -70.95389 13458 ft 286 kts 28°
2026-05-05 23:10 -41.00036 -70.93706 13791 ft 305 kts 33°
2026-05-05 23:11 -40.98427 -70.91794 14028 ft 324 kts 36°
2026-05-05 23:11 -40.96739 -70.89697 14255 ft 342 kts 37°
2026-05-05 23:11 -40.94966 -70.87479 14470 ft 358 kts 37°
2026-05-05 23:11 -40.93116 -70.85162 14685 ft 373 kts 37°
2026-05-05 23:12 -40.91210 -70.82772 15085 ft 381 kts 38°
2026-05-05 23:12 -40.89269 -70.80338 15635 ft 385 kts 38°
2026-05-05 23:12 -40.87317 -70.77891 16258 ft 388 kts 38°
2026-05-05 23:12 -40.85351 -70.75427 16853 ft 391 kts 38°
2026-05-05 23:13 -40.83369 -70.72943 17425 ft 394 kts 38°
2026-05-05 23:13 -40.81368 -70.70435 17999 ft 397 kts 38°
2026-05-05 23:13 -40.79385 -70.67952 18579 ft 399 kts 38°
2026-05-05 23:13 -40.77362 -70.65418 19141 ft 401 kts 38°
2026-05-05 23:14 -40.75330 -70.62875 19689 ft 403 kts 38°
2026-05-05 23:14 -40.73323 -70.60280 20220 ft 407 kts 40°
2026-05-05 23:14 -40.71390 -70.57524 20738 ft 410 kts 42°
2026-05-05 23:14 -40.69484 -70.54717 21236 ft 412 kts 42°
2026-05-05 23:15 -40.67552 -70.51913 21720 ft 413 kts 42°
2026-05-05 23:15 -40.65606 -70.49116 22185 ft 415 kts 41°
2026-05-05 23:15 -40.63650 -70.46323 22647 ft 416 kts 41°
2026-05-05 23:15 -40.61680 -70.43516 23098 ft 418 kts 41°
2026-05-05 23:16 -40.59756 -70.40698 23534 ft 421 kts 43°
2026-05-05 23:16 -40.57919 -70.37677 23966 ft 425 kts 45°
2026-05-05 23:16 -40.56135 -70.34555 24384 ft 427 kts 46°
2026-05-05 23:16 -40.54366 -70.31397 24794 ft 429 kts 46°
2026-05-05 23:17 -40.52590 -70.28244 25197 ft 430 kts 46°
2026-05-05 23:17 -40.50800 -70.25084 25594 ft 431 kts 45°
2026-05-05 23:17 -40.48998 -70.21917 25969 ft 431 kts 45°
2026-05-05 23:17 -40.47193 -70.18757 26258 ft 432 kts 45°
2026-05-05 23:18 -40.45382 -70.15593 26543 ft 433 kts 45°
2026-05-05 23:18 -40.43566 -70.12431 26832 ft 434 kts 45°
2026-05-05 23:18 -40.41745 -70.09265 27098 ft 435 kts 44°
2026-05-05 23:18 -40.39915 -70.06090 27349 ft 437 kts 44°
2026-05-05 23:19 -40.38111 -70.02931 27561 ft 439 kts 45°
2026-05-05 23:19 -40.36274 -69.99716 27782 ft 441 kts 45°
2026-05-05 23:19 -40.34427 -69.96494 28004 ft 442 kts 45°
2026-05-05 23:19 -40.32569 -69.93261 28196 ft 444 kts 45°
2026-05-05 23:20 -40.31337 -69.91122 28342 ft 445 kts 45°
2026-05-05 23:20 -40.28854 -69.86818 28628 ft 447 kts 45°
2026-05-05 23:20 -40.26976 -69.83571 28835 ft 448 kts 45°
2026-05-05 23:20 -40.25089 -69.80312 29033 ft 449 kts 45°
2026-05-05 23:21 -40.23197 -69.77048 29214 ft 451 kts 45°
2026-05-05 23:21 -40.21292 -69.73768 29449 ft 451 kts 45°
2026-05-05 23:21 -40.20027 -69.71592 29645 ft 451 kts 45°
2026-05-05 23:21 -40.18128 -69.68327 29939 ft 450 kts 45°
2026-05-05 23:22 -40.16233 -69.65074 30229 ft 449 kts 45°
2026-05-05 23:22 -40.14340 -69.61828 30490 ft 448 kts 45°
2026-05-05 23:22 -40.12447 -69.58587 30746 ft 448 kts 45°
2026-05-05 23:22 -40.10553 -69.55345 31023 ft 448 kts 45°
2026-05-05 23:23 -40.08696 -69.52171 31456 ft 443 kts 45°
2026-05-05 23:23 -40.06828 -69.48983 31726 ft 442 kts 45°
2026-05-05 23:23 -40.04953 -69.45784 31929 ft 443 kts 45°
2026-05-05 23:23 -40.03079 -69.42592 32203 ft 442 kts 45°
2026-05-05 23:24 -40.01205 -69.39402 32473 ft 442 kts 45°
2026-05-05 23:24 -39.99334 -69.36221 32726 ft 441 kts 45°
2026-05-05 23:24 -39.97458 -69.33034 32945 ft 442 kts 45°
2026-05-05 23:24 -39.95608 -69.29894 33202 ft 441 kts 45°
2026-05-05 23:25 -39.93110 -69.25659 33579 ft 439 kts 44°
2026-05-05 23:25 -39.91874 -69.23567 33718 ft 440 kts 44°
2026-05-05 23:25 -39.88091 -69.17170 33803 ft 451 kts 44°
2026-05-05 23:26 -39.84220 -69.10638 33933 ft 459 kts 44°
2026-05-05 23:26 -39.82270 -69.07354 34168 ft 459 kts 44°
2026-05-05 23:26 -39.80320 -69.04072 34381 ft 459 kts 44°
2026-05-05 23:27 -39.78362 -69.00779 34535 ft 461 kts 44°
2026-05-05 23:27 -39.76396 -68.97478 34736 ft 461 kts 44°
2026-05-05 23:27 -39.74427 -68.94174 34850 ft 463 kts 44°
2026-05-05 23:27 -39.72473 -68.90899 34857 ft 463 kts 44°
2026-05-05 23:28 -39.68516 -68.84276 34866 ft 466 kts 44°
2026-05-05 23:28 -39.64533 -68.77625 34871 ft 466 kts 44°
2026-05-05 23:29 -39.60540 -68.70971 34869 ft 469 kts 44°
2026-05-05 23:29 -39.56518 -68.64281 34870 ft 471 kts 43°
2026-05-05 23:30 -39.52489 -68.57573 34871 ft 473 kts 44°
2026-05-05 23:30 -39.48434 -68.50831 34872 ft 476 kts 43°
2026-05-05 23:31 -39.44347 -68.44083 34873 ft 477 kts 43°
2026-05-05 23:31 -39.40244 -68.37331 34873 ft 477 kts 43°
2026-05-05 23:32 -39.36133 -68.30581 34874 ft 479 kts 43°
2026-05-05 23:32 -39.32019 -68.23833 34887 ft 477 kts 43°
2026-05-05 23:33 -39.29991 -68.20519 34879 ft 465 kts 43°
2026-05-05 23:33 -39.28003 -68.17276 34875 ft 457 kts 42°
2026-05-05 23:33 -39.24088 -68.10899 34875 ft 449 kts 42°
2026-05-05 23:34 -39.20195 -68.04571 34876 ft 451 kts 42°
2026-05-05 23:34 -39.16290 -67.98238 34876 ft 451 kts 42°
2026-05-05 23:35 -39.12407 -67.91950 34876 ft 451 kts 42°
2026-05-05 23:35 -39.08491 -67.85556 34866 ft 460 kts 43°
2026-05-05 23:36 -39.04465 -67.79014 34876 ft 472 kts 43°
2026-05-05 23:36 -39.00329 -67.72319 34876 ft 482 kts 43°
2026-05-05 23:37 -38.96136 -67.65553 34875 ft 482 kts 43°
2026-05-05 23:37 -38.91957 -67.58827 34875 ft 479 kts 43°
2026-05-05 23:38 -38.87831 -67.52202 34876 ft 477 kts 43°
2026-05-05 23:38 -38.83701 -67.45584 34874 ft 472 kts 42°
2026-05-05 23:39 -38.79600 -67.39027 34875 ft 468 kts 42°
2026-05-05 23:39 -38.75520 -67.32517 34876 ft 468 kts 42°
2026-05-05 23:40 -38.71472 -67.26070 34876 ft 466 kts 42°
2026-05-05 23:40 -38.67394 -67.19589 34876 ft 467 kts 42°
2026-05-05 23:41 -38.63314 -67.13118 34876 ft 467 kts 42°
2026-05-05 23:41 -38.59230 -67.06652 34876 ft 467 kts 42°
2026-05-05 23:42 -38.55141 -67.00193 34876 ft 468 kts 42°
2026-05-05 23:42 -38.51054 -66.93712 34876 ft 468 kts 42°
2026-05-05 23:43 -38.46992 -66.87311 34875 ft 466 kts 42°
2026-05-05 23:43 -38.42889 -66.80879 34876 ft 466 kts 41°
2026-05-05 23:44 -38.38782 -66.74457 34876 ft 467 kts 41°
2026-05-05 23:44 -38.34722 -66.68032 34875 ft 471 kts 45°
2026-05-05 23:45 -38.31255 -66.60834 34876 ft 481 kts 53°
2026-05-05 23:45 -38.28109 -66.53320 34876 ft 480 kts 53°
2026-05-05 23:46 -38.24949 -66.45823 34876 ft 479 kts 53°
2026-05-05 23:46 -38.21801 -66.38396 34876 ft 480 kts 53°
2026-05-05 23:47 -38.18624 -66.30929 34876 ft 480 kts 53°
2026-05-05 23:47 -38.15456 -66.23438 34876 ft 481 kts 53°
2026-05-05 23:48 -38.12287 -66.15951 34876 ft 480 kts 53°
2026-05-05 23:48 -38.09110 -66.08485 34876 ft 480 kts 53°
2026-05-05 23:49 -38.05944 -66.01073 34876 ft 481 kts 53°
2026-05-05 23:49 -38.02759 -65.93643 34876 ft 479 kts 53°
2026-05-05 23:50 -37.99567 -65.86218 34876 ft 479 kts 53°
2026-05-05 23:50 -37.96339 -65.78727 34884 ft 488 kts 53°
2026-05-05 23:51 -37.93081 -65.71186 34872 ft 488 kts 53°
2026-05-05 23:51 -37.89822 -65.63661 34876 ft 493 kts 53°
2026-05-05 23:52 -37.86514 -65.56042 34876 ft 494 kts 53°
2026-05-05 23:52 -37.83205 -65.48436 34876 ft 493 kts 53°
2026-05-05 23:53 -37.79887 -65.40831 34874 ft 492 kts 53°
2026-05-05 23:53 -37.76574 -65.33252 34876 ft 493 kts 53°
2026-05-05 23:54 -37.73275 -65.25724 34876 ft 493 kts 53°
2026-05-05 23:54 -37.69949 -65.18153 34876 ft 492 kts 53°
2026-05-05 23:55 -37.66618 -65.10588 34876 ft 492 kts 53°
2026-05-05 23:55 -37.63301 -65.03072 34876 ft 492 kts 53°
2026-05-05 23:56 -37.59934 -64.95462 34901 ft 501 kts 55°
2026-05-05 23:56 -37.56487 -64.87688 34927 ft 512 kts 55°
2026-05-05 23:57 -37.52989 -64.79816 34934 ft 514 kts 55°
2026-05-05 23:57 -37.49520 -64.72024 34935 ft 512 kts 55°
2026-05-05 23:58 -37.46044 -64.64187 34935 ft 512 kts 55°
2026-05-05 23:58 -37.42542 -64.56371 34935 ft 512 kts 54°
2026-05-05 23:59 -37.39034 -64.48574 34935 ft 512 kts 54°
2026-05-05 23:59 -37.35539 -64.40822 34935 ft 512 kts 54°
2026-05-06 00:00 -37.32007 -64.33046 34935 ft 512 kts 54°
2026-05-06 00:00 -37.28450 -64.25296 34935 ft 512 kts 54°
2026-05-06 00:01 -37.24888 -64.17559 34935 ft 511 kts 54°
2026-05-06 00:01 -37.21338 -64.09868 34935 ft 511 kts 54°
2026-05-06 00:02 -37.17757 -64.02129 34935 ft 511 kts 54°
2026-05-06 00:02 -37.14200 -63.94388 34935 ft 512 kts 54°
2026-05-06 00:03 -37.10644 -63.86657 34935 ft 511 kts 54°
2026-05-06 00:03 -37.07096 -63.78985 34935 ft 511 kts 54°
2026-05-06 00:04 -37.03517 -63.71272 34935 ft 511 kts 54°
2026-05-06 00:04 -36.99939 -63.63583 34935 ft 511 kts 54°
2026-05-06 00:05 -36.94562 -63.52068 34935 ft 511 kts 54°
2026-05-06 00:06 -36.90967 -63.44393 34935 ft 511 kts 53°
2026-05-06 00:06 -36.87368 -63.36728 34935 ft 511 kts 53°
2026-05-06 00:07 -36.83796 -63.29138 34935 ft 511 kts 53°
2026-05-06 00:07 -36.80184 -63.21481 34935 ft 511 kts 53°
2026-05-06 00:08 -36.76571 -63.13839 34935 ft 511 kts 53°
2026-05-06 00:08 -36.72956 -63.06210 34935 ft 511 kts 53°
2026-05-06 00:09 -36.69945 -62.99870 34935 ft 511 kts 53°
2026-05-06 00:09 -36.66322 -62.92257 34935 ft 511 kts 53°
2026-05-06 00:10 -36.62688 -62.84637 34935 ft 511 kts 53°
2026-05-06 00:10 -36.59074 -62.77078 34935 ft 510 kts 53°
2026-05-06 00:11 -36.55439 -62.69491 34935 ft 510 kts 53°
2026-05-06 00:11 -36.51795 -62.61901 34935 ft 510 kts 53°
2026-05-06 00:12 -36.48174 -62.54376 34935 ft 510 kts 53°
2026-05-06 00:12 -36.44526 -62.46814 34935 ft 510 kts 53°
2026-05-06 00:13 -36.40866 -62.39243 34935 ft 510 kts 53°
2026-05-06 00:13 -36.38097 -62.33524 34945 ft 485 kts 50°
2026-05-06 00:13 -36.36382 -62.29988 34937 ft 472 kts 50°
2026-05-06 00:14 -36.34725 -62.26576 34934 ft 465 kts 50°
2026-05-06 00:14 -36.31409 -62.19756 34934 ft 461 kts 50°
2026-05-06 00:15 -36.28085 -62.12930 34935 ft 463 kts 50°
2026-05-06 00:15 -36.24765 -62.06081 34935 ft 463 kts 50°
2026-05-06 00:16 -36.21448 -61.99300 34935 ft 463 kts 49°
2026-05-06 00:16 -36.18095 -61.92476 34935 ft 464 kts 49°
2026-05-06 00:17 -36.14734 -61.85650 34935 ft 464 kts 49°
2026-05-06 00:17 -36.11390 -61.78862 34935 ft 464 kts 49°
2026-05-06 00:18 -36.08028 -61.72043 34935 ft 464 kts 49°
2026-05-06 00:18 -36.04658 -61.65212 34935 ft 465 kts 50°
2026-05-06 00:19 -36.01308 -61.58374 34935 ft 464 kts 49°
2026-05-06 00:19 -35.97946 -61.51577 34935 ft 464 kts 49°
2026-05-06 00:20 -35.94586 -61.44810 34935 ft 464 kts 49°
2026-05-06 00:20 -35.92916 -61.41453 34951 ft 450 kts 51°
2026-05-06 00:20 -35.91311 -61.38232 34940 ft 430 kts 51°
2026-05-06 00:20 -35.89766 -61.35131 34934 ft 418 kts 51°
2026-05-06 00:21 -35.88260 -61.32105 34933 ft 411 kts 51°
2026-05-06 00:21 -35.85291 -61.26107 34935 ft 409 kts 51°
2026-05-06 00:22 -35.82314 -61.20106 34935 ft 411 kts 51°
2026-05-06 00:22 -35.79347 -61.14139 34935 ft 410 kts 51°
2026-05-06 00:23 -35.76356 -61.08137 34935 ft 410 kts 51°
2026-05-06 00:23 -35.73335 -61.02191 34935 ft 410 kts 50°
2026-05-06 00:24 -35.70305 -60.96244 34935 ft 410 kts 50°
2026-05-06 00:24 -35.67272 -60.90304 34935 ft 410 kts 50°
2026-05-06 00:25 -35.64257 -60.84406 34935 ft 410 kts 50°
2026-05-06 00:25 -35.62728 -60.81420 34755 ft 409 kts 50°
2026-05-06 00:25 -35.61227 -60.78490 34355 ft 401 kts 50°
2026-05-06 00:25 -35.59745 -60.75601 33830 ft 397 kts 50°
2026-05-06 00:26 -35.58285 -60.72749 33401 ft 391 kts 51°
2026-05-06 00:26 -35.56859 -60.69938 32993 ft 384 kts 51°
2026-05-06 00:26 -35.55457 -60.67181 32595 ft 378 kts 51°
2026-05-06 00:26 -35.54074 -60.64468 32199 ft 371 kts 51°
2026-05-06 00:27 -35.52732 -60.61838 31823 ft 364 kts 51°
2026-05-06 00:27 -35.46251 -60.49177 29683 ft 343 kts 49°
2026-05-06 00:27 -35.36248 -60.29791 27050 ft 339 kts 48°
2026-05-06 00:27 -35.25726 -60.09516 23774 ft 362 kts 49°
2026-05-06 00:28 -35.08145 -59.75921 18614 ft 374 kts 49°
2026-05-06 00:28 -34.86051 -59.34149 11867 ft 328 kts 53°
2026-05-06 00:28 -34.71692 -59.07095 7657 ft 273 kts 53°
2026-05-06 00:28 -34.70659 -59.05193 7462 ft 268 kts 53°
2026-05-06 00:29 -34.66671 -58.97829 6532 ft 270 kts 53°
2026-05-06 00:29 -34.59886 -58.85157 4993 ft 277 kts 54°
2026-05-06 00:29 -34.58826 -58.83197 4737 ft 278 kts 53°
2026-05-06 00:29 -34.58480 -58.82561 4657 ft 278 kts 54°
2026-05-06 00:30 -34.57419 -58.80606 4408 ft 280 kts 54°
2026-05-06 00:31 -34.56346 -58.78628 4157 ft 281 kts 54°
2026-05-06 00:31 -34.55272 -58.76649 3904 ft 280 kts 54°
2026-05-06 00:31 -34.54228 -58.74725 3836 ft 267 kts 54°
2026-05-06 00:31 -34.53236 -58.72899 3821 ft 254 kts 54°
2026-05-06 00:32 -34.52291 -58.71158 3725 ft 239 kts 54°
2026-05-06 00:32 -34.51406 -58.69527 3611 ft 224 kts 54°
2026-05-06 00:32 -34.50576 -58.68000 3495 ft 209 kts 54°
2026-05-06 00:32 -34.49800 -58.66570 3431 ft 198 kts 54°
2026-05-06 00:33 -34.49041 -58.65174 3413 ft 200 kts 54°
2026-05-06 00:33 -34.48285 -58.63783 3341 ft 201 kts 54°
2026-05-06 00:33 -34.47514 -58.62363 3227 ft 199 kts 54°
2026-05-06 00:33 -34.46772 -58.60998 3097 ft 188 kts 54°
2026-05-06 00:34 -34.46224 -58.59583 2928 ft 188 kts 78°
2026-05-06 00:34 -34.46467 -58.58068 2781 ft 186 kts 116°
2026-05-06 00:34 -34.47203 -58.56796 2619 ft 183 kts 128°
2026-05-06 00:34 -34.47985 -58.55600 2461 ft 180 kts 126°
2026-05-06 00:35 -34.48742 -58.54380 2301 ft 181 kts 123°
2026-05-06 00:35 -34.49443 -58.53161 2068 ft 171 kts 122°
2026-05-06 00:35 -34.50106 -58.51985 1841 ft 170 kts 122°
2026-05-06 00:35 -34.50764 -58.50812 1623 ft 169 kts 122°
2026-05-06 00:36 -34.51420 -58.49642 1395 ft 162 kts 122°
2026-05-06 00:36 -34.51609 -58.49308 1348 ft 158 kts 122°
2026-05-06 00:36 -34.52221 -58.48237 1187 ft 153 kts 122°
2026-05-06 00:36 -34.52815 -58.47217 1050 ft 146 kts 123°
2026-05-06 00:37 -34.53376 -58.46196 887 ft 144 kts 122°
2026-05-06 00:37 -34.53906 -58.45181 627 ft 141 kts 123°
2026-05-06 00:37 -34.54450 -58.44211 404 ft 137 kts 124°
2026-05-06 00:37 -34.54974 -58.43262 172 ft 134 kts 124°
2026-05-06 00:38 -34.55478 -58.42368 31 ft 124 kts 124°
2026-05-06 00:38 -34.55878 -58.41657 26 ft 64 kts 124°
2026-05-06 00:38 -34.56074 -58.41307 26 ft 46 kts 124°
2026-05-06 00:38 -34.56224 -58.41027 26 ft 32 kts 108°
2026-05-06 00:39 -34.56243 -58.40836 26 ft 8 kts 84°
2026-05-06 00:39 -34.56210 -58.40824 26 ft 8 kts 313°
2026-05-06 00:39 -34.56176 -58.40904 26 ft 12 kts 306°